PEGASUS DEB, 39308

Orbit data source: Space-Track

PEGASUS DEB, 39308 is space debris in LEO originally from a launch on Thu, 19 May 1994 UTC launched from the Air Force Western Test Range (AFWTR). Debris objects in space refer to the collection of defunct objects orbiting the Earth. Examples of debris include non-operational satellites, rocket bodies, and fragments generated from explosions, collisions, or faulty payload assembly.

Loading next visibility...
Identifier
39308, 1994-029AET
Orbit
LEO
Country
Flag of USUS
Related business
Manufacturer
Unknown
Mission
Spacecraft
Bus & Motor
Unknown
Mass
Unknown
Launch date (UTC)
1994-05-19 (32 years ago)
Launch vehicle
Unknown
Launch site
Air Force Western Test Range (AFWTR)
Object type
Payload
Rocket body
Debris
Shape & HBR
Unknown shape, 0.1 m
Radar Cross Section
Small (<0.1 m²)

Expand to show TLE details & history
Last TLE update: 1 day ago

TLE from 1 day ago
0 PEGASUS DEB
1 39308U 94029AET 26061.87208417  .00007028  00000-0  13041-2 0  9997
2 39308  81.9659 120.9940 0342225 345.6189  13.5435 14.33668493665489
Epoch: 2026-03-02T20:55Z
TLE epoch observation values (Epoch: 2026-03-02T20:55:48.072Z)
Latitude
0.00003°
Longitude
6.38444°
Altitude
544.75 km
Speed
7.715 km/s
True Right ascension
08h 03m 58s
True Declination
0° 00' 00"
Sunlit
Object was in full shadow at epoch
Visualization orbit readout
Latitude
Unknown
Longitude
Unknown
Altitude
Unknown
Speed
Unknown
Apparent Right ascension
Unknown
Apparent Declination
Unknown
Sunlit
N/A
Visualization observer readout
Local Sidereal Time
07:56:33
Azimuth
Unknown
Elevation
Unknown
Doppler factor
Unknown
Orbital elements
Apogee altitude
1,021.452 km
Perigee altitude
531.746 km
Semi-major axis
7,154.736 km
Eccentricity
0.03422
Inclination
81.9659°
RAAN
120.994°
Arg. of periapsis
345.6189°
True anomaly
14.50161°
Mean anomaly
13.5435°
Eccentric anomaly
14.01848°
Mean motion
3.58635 °/min
Orbital period
100.38 mins
BSTAR
0.0013041
Loading maneuver chart data...
Computing Atmospheric mass density...
Loading historical data...
Loading historical data...
Loading historical data...
Loading historical data...
Loading historical data...
Loading historical data...
Loading historical data...

Documentation

Showing up to 5 results
|